H1 CPF 2 NER 2021 3 30 9 089 01 glonass137 H2 1705501 9137 42939 2021 3 30 0 0 0 2021 4 2 23 45 0 900 1 1 0 0 0 1 H9 10 0 59303 0.00000 0 -2793201.301 17663313.963 18201040.960 10 0 59303 900.00000 0 -3621483.949 15459758.522 19973375.767 10 0 59303 1800.00000 0 -4691804.320 13147124.385 21358146.124 10 0 59303 2700.00000 0 -5997946.104 10791798.574 22328476.642 10 0 59303 3600.00000 0 -7521459.863 8459188.518 22865521.961 10 0 59303 4500.00000 0 -9232236.397 6211165.775 22958831.625 10 0 59303 5400.00000 0 -11089581.319 4103671.440 22606553.945 10 0 59303 6300.00000 0 -13043747.472 2184581.967 21815474.949 10 0 59303 7200.00000 0 -15037862.411 491923.410 20600891.401 10 0 59303 8100.00000 0 -17010171.788 -947492.492 18986319.942 10 0 59303 9000.00000 0 -18896506.024 -2118954.372 17003047.298 10 0 59303 9900.00000 0 -20632868.036 -3020223.099 14689529.566 10 0 59303 10800.00000 0 -22158034.375 -3661374.709 12090651.447 10 0 59303 11700.00000 0 -23416061.191 -4064121.623 9256859.094 10 0 59303 12600.00000 0 -24358589.888 -4260641.307 6243182.939 10 0 59303 13500.00000 0 -24946855.515 -4291962.382 3108169.208 10 0 59303 14400.00000 0 -25153313.008 -4205976.955 -87259.174 10 0 59303 15300.00000 0 -24962812.341 -4055163.888 -3280989.772 10 0 59303 16200.00000 0 -24373272.525 -3894120.135 -6410932.413 10 0 59303 17100.00000 0 -23395825.535 -3777005.551 -9416231.359 10 0 59303 18000.00000 0 -22054423.607 -3755010.266 -12238453.522 10 0 59303 18900.00000 0 -20384926.114 -3873952.838 -14822729.013 10 0 59303 19800.00000 0 -18433704.115 -4172111.789 -17118821.342 10 0 59303 20700.00000 0 -16255821.111 -4678383.085 -19082106.033 10 0 59303 21600.00000 0 -13912866.170 -5410842.311 -20674438.595 10 0 59303 22500.00000 0 -11470530.076 -6375772.981 -21864895.062 10 0 59303 23400.00000 0 -8996025.750 -7567202.704 -22630370.938 10 0 59303 24300.00000 0 -6555460.394 -8966967.427 -22956027.364 10 0 59303 25200.00000 0 -4211268.516 -10545301.813 -22835576.227 10 0 59303 26100.00000 0 -2019812.313 -12261931.615 -22271399.078 10 0 59303 27000.00000 0 -29248.537 -14067622.916 -21274497.870 10 0 59303 27900.00000 0 1722250.287 -15906123.961 -19864278.635 10 0 59303 28800.00000 0 3207847.250 -17716418.777 -18068172.387 10 0 59303 29700.00000 0 4412910.021 -19435198.677 -15921100.565 10 0 59303 30600.00000 0 5335362.547 -20999448.566 -13464795.241 10 0 59303 31500.00000 0 5985506.183 -22349039.893 -10746987.253 10 0 59303 32400.00000 0 6385319.309 -23429221.791 -7820477.877 10 0 59303 33300.00000 0 6567266.302 -24192906.034 -4742112.069 10 0 59303 34200.00000 0 6572667.279 -24602649.924 -1571673.339 10 0 59303 35100.00000 0 6449698.564 -24632253.922 1629278.108 10 0 59303 36000.00000 0 6251109.271 -24267906.901 4798601.202 10 0 59303 36900.00000 0 6031751.266 -23508830.927 7874780.258 10 0 59303 37800.00000 0 5846027.575 -22367398.459 10798118.047 10 0 59303 38700.00000 0 5745367.521 -20868716.996 13511892.472 10 0 59303 39600.00000 0 5775835.654 -19049698.455 15963454.358 10 0 59303 40500.00000 0 5975975.655 -16957652.054 18105245.318 10 0 59303 41400.00000 0 6374980.493 -14648459.150 19895716.373 10 0 59303 42300.00000 0 6991266.169 -12184405.854 21300129.922 10 0 59303 43200.00000 0 7831509.561 -9631763.143 22291230.150 10 0 59303 44100.00000 0 8890191.375 -7058214.469 22849769.424 10 0 59303 45000.00000 0 10149664.166 -4530237.092 22964880.879 10 0 59303 45900.00000 0 11580743.569 -2110545.020 22634290.289 10 0 59303 46800.00000 0 13143799.081 144301.168 21864363.126 10 0 59303 47700.00000 0 14790299.926 2186019.196 20669985.699 10 0 59303 48600.00000 0 16464752.481 3976377.244 19074282.236 10 0 59303 49500.00000 0 18106949.315 5488540.536 17108172.710 10 0 59303 50400.00000 0 19654436.508 6707936.956 14809779.285 10 0 59303 51300.00000 0 21045096.546 7632606.343 12223692.091 10 0 59303 52200.00000 0 22219738.848 8273019.578 9400107.871 10 0 59303 53100.00000 0 23124589.140 8651375.707 6393857.752 10 0 59303 54000.00000 0 23713572.859 8800407.373 3263342.721 10 0 59303 54900.00000 0 23950296.012 8761745.626 69397.452 10 0 59303 55800.00000 0 23809639.438 8583913.846 -3125895.096 10 0 59303 56700.00000 0 23278898.556 8320036.407 -6260414.814 10 0 59303 57600.00000 0 22358419.797 8025359.849 -9273217.164 10 0 59303 58500.00000 0 21061706.180 7754692.368 -12105723.121 10 0 59303 59400.00000 0 19414986.950 7559870.877 -14702862.588 10 0 59303 60300.00000 0 17456268.796 7487363.690 -17014148.539 10 0 59303 61200.00000 0 15233908.121 7576110.998 -18994660.591 10 0 59303 62100.00000 0 12804763.854 7855695.090 -20605918.799 10 0 59303 63000.00000 0 10232007.850 8344918.208 -21816630.794 10 0 59303 63900.00000 0 7582684.123 9050848.516 -22603297.950 10 0 59303 64800.00000 0 4925118.443 9968374.871 -22950669.237 10 0 59303 65700.00000 0 2326285.783 11080289.590 -22852034.355 10 0 59303 66600.00000 0 -150755.260 12357896.136 -22309350.848 10 0 59303 67500.00000 0 -2449255.056 13762116.662 -21333203.060 10 0 59303 68400.00000 0 -4520893.899 15245053.327 -19942593.919 10 0 59303 69300.00000 0 -6327544.039 16751938.274 -18164573.659 10 0 59303 70200.00000 0 -7842600.617 18223390.774 -16033712.664 10 0 59303 71100.00000 0 -9051827.373 19597887.157 -13591428.509 10 0 59303 72000.00000 0 -9953683.140 20814340.003 -10885180.190 10 0 59303 72900.00000 0 -10559117.001 21814678.402 -7967545.091 10 0 59303 73800.00000 0 -10890842.189 22546320.911 -4895196.531 10 0 59303 74700.00000 0 -10982120.619 22964437.180 -1727801.944 10 0 59303 75600.00000 0 -10875110.544 23033903.050 1473136.795 10 0 59303 76500.00000 0 -10618848.157 22730866.755 4645478.152 10 0 59303 77400.00000 0 -10266949.242 22043860.154 7727647.271 10 0 59303 78300.00000 0 -9875128.691 20974408.125 10659830.279 10 0 59303 79200.00000 0 -9498643.218 19537110.198 13385133.291 10 0 59303 80100.00000 0 -9189765.597 17759190.721 15850683.574 10 0 59303 81000.00000 0 -8995397.275 15679536.004 18008651.765 10 0 59303 81900.00000 0 -8954920.163 13347258.119 19817175.714 10 0 59303 82800.00000 0 -9098378.205 10819844.809 21241168.483 10 0 59303 83700.00000 0 -9445065.414 8160971.800 22252995.435 10 0 59303 84600.00000 0 -10002579.982 5438067.717 22833007.870 10 0 59303 85500.00000 0 -10766384.604 2719731.974 22969923.272 10 0 59304 0.00000 0 -11719891.984 73111.817 22661045.129 10 0 59304 900.00000 0 -12835073.026 -2438653.599 21912318.021 10 0 59304 1800.00000 0 -14073562.276 -4758817.112 20738216.949 10 0 59304 2700.00000 0 -15388216.490 -6839136.767 19161472.259 10 0 59304 3600.00000 0 -16725060.800 -8641632.440 17212635.172 10 0 59304 4500.00000 0 -18025542.354 -10139912.509 14929491.415 10 0 59304 5400.00000 0 -19228997.248 -11320016.554 12356333.620 10 0 59304 6300.00000 0 -20275227.606 -12180739.372 9543105.876 10 0 59304 7200.00000 0 -21107080.500 -12733423.411 6544436.527 10 0 59304 8100.00000 0 -21672919.987 -13001228.982 3418577.741 10 0 59304 9000.00000 0 -21928887.655 -13017913.697 226272.334 10 0 59304 9900.00000 0 -21840855.691 -12826173.205 -2970429.755 10 0 59304 10800.00000 0 -21385989.247 -12475614.133 -6109381.902 10 0 59304 11700.00000 0 -20553851.276 -12020445.657 -9129554.027 10 0 59304 12600.00000 0 -19347002.347 -11516988.177 -11972224.207 10 0 59304 13500.00000 0 -17781069.247 -11021105.312 -14582124.914 10 0 59304 14400.00000 0 -15884278.673 -10585668.607 -16908521.038 10 0 59304 15300.00000 0 -13696474.925 -10258162.826 -18906198.336 10 0 59304 16200.00000 0 -11267662.204 -10078533.580 -20536342.977 10 0 59304 17100.00000 0 -8656131.981 -10077368.601 -21767295.212 10 0 59304 18000.00000 0 -5926253.306 -10274489.694 -22575162.708 10 0 59304 18900.00000 0 -3146017.750 -10678014.912 -22944282.079 10 0 59304 19800.00000 0 -384440.737 -11283930.599 -22867520.062 10 0 59304 20700.00000 0 2291073.081 -12076191.427 -22346408.879 10 0 59304 21600.00000 0 4817291.553 -13027344.332 -21391113.486 10 0 59304 22500.00000 0 7137538.161 -14099650.262 -20020231.524 10 0 59304 23400.00000 0 9203798.278 -15246656.725 -18260429.942 10 0 59304 24300.00000 0 10978462.022 -16415155.192 -16145925.282 10 0 59304 25200.00000 0 12435632.242 -17547441.195 -13717817.598 10 0 59304 26100.00000 0 13561944.316 -18583782.144 -11023290.842 10 0 59304 27000.00000 0 14356864.877 -19464989.057 -8114695.145 10 0 59304 27900.00000 0 14832458.394 -20134983.930 -5048528.761 10 0 59304 28800.00000 0 15012632.732 -20543254.475 -1884339.587 10 0 59304 29700.00000 0 14931896.793 -20647092.691 1316432.219 10 0 59304 30600.00000 0 14633683.748 -20413522.709 4491647.891 10 0 59304 31500.00000 0 14168311.542 -19820836.440 7579676.384 10 0 59304 32400.00000 0 13590667.600 -18859672.063 10520589.842 10 0 59304 33300.00000 0 12957716.012 -17533589.551 13257324.856 10 0 59304 34200.00000 0 12325932.807 -15859118.629 15736786.960 10 0 59304 35100.00000 0 11748777.677 -13865276.544 17910877.166 10 0 59304 36000.00000 0 11274308.762 -11592575.122 19737421.025 10 0 59304 36900.00000 0 10943040.888 -9091557.848 21180982.640 10 0 59304 37800.00000 0 10786137.248 -6420927.049 22213548.456 10 0 59304 38700.00000 0 10824010.487 -3645338.109 22815068.154 10 0 59304 39600.00000 0 11065391.971 -832951.410 22973842.587 10 0 59304 40500.00000 0 11506908.465 1947157.455 22686751.581 10 0 59304 41400.00000 0 12133184.336 4627622.899 21959317.214 10 0 59304 42300.00000 0 12917465.494 7145341.979 20805601.186 10 0 59304 43200.00000 0 13822739.515 9443849.561 19247937.838 10 0 59304 44100.00000 0 14803305.655 11475418.240 17316507.322 10 0 59304 45000.00000 0 15806729.474 13202796.341 15048756.510 10 0 59304 45900.00000 0 16776100.491 14600512.327 12488678.042 10 0 59304 46800.00000 0 17652498.307 15655691.759 9685960.799 10 0 59304 47700.00000 0 18377563.449 16368353.127 6695027.788 10 0 59304 48600.00000 0 18896064.459 16751170.724 3573979.800 10 0 59304 49500.00000 0 19158352.525 16828715.123 383465.297 10 0 59304 50400.00000 0 19122599.366 16636203.787 -2814501.200 10 0 59304 51300.00000 0 18756723.021 16217815.218 -5957748.794 10 0 59304 52200.00000 0 18039919.227 15624638.522 -8985163.887 10 0 59304 53100.00000 0 16963732.698 14912345.765 -11837883.434 10 0 59304 54000.00000 0 15532622.049 14138686.283 -14460443.969 10 0 59304 54900.00000 0 13763993.538 13360909.494 -16801863.531 10 0 59304 55800.00000 0 11687701.276 12633225.755 -18816635.005 10 0 59304 56700.00000 0 9345034.024 12004412.935 -20465611.473 10 0 59304 57600.00000 0 6787230.250 11515669.983 -21716766.451 10 0 59304 58500.00000 0 4073582.905 11198808.175 -22545814.421 10 0 59304 59400.00000 0 1269212.379 11074856.197 -22936680.043 10 0 59304 60300.00000 0 -1557400.206 11153137.673 -22881807.339 10 0 59304 61200.00000 0 -4337017.220 11430859.766 -22382303.247 10 0 59304 62100.00000 0 -7002278.680 11893229.882 -21447913.098 10 0 59304 63000.00000 0 -9490257.589 12514095.391 -20096828.686 10 0 59304 63900.00000 0 -11744830.940 13257079.196 -18355332.739 10 0 59304 64800.00000 0 -13718768.698 14077163.271 -16257286.671 10 0 59304 65700.00000 0 -15375454.820 14922653.352 -13843471.391 10 0 59304 66600.00000 0 -16690169.543 15737441.927 -11160793.898 10 0 59304 67500.00000 0 -17650880.628 16463474.073 -8261374.942 10 0 59304 68400.00000 0 -18258511.703 17043312.013 -5201535.401 10 0 59304 69300.00000 0 -18526677.662 17422690.039 -2040701.223 10 0 59304 70200.00000 0 -18480899.537 17552951.772 1159751.664 10 0 59304 71100.00000 0 -18157333.006 17393266.653 4337689.825 10 0 59304 72000.00000 0 -17601065.139 16912531.794 7431428.645 10 0 59304 72900.00000 0 -16864052.025 16090878.661 10380928.914 10 0 59304 73800.00000 0 -16002784.898 14920720.592 13128960.332 10 0 59304 74700.00000 0 -15075783.566 13407296.584 15622209.277 10 0 59304 75600.00000 0 -14141023.016 11568687.788 17812309.608 10 0 59304 76500.00000 0 -13253401.502 9435305.226 19656776.885 10 0 59304 77400.00000 0 -12462356.549 7048869.232 21119828.324 10 0 59304 78300.00000 0 -11809728.762 4460922.186 22173073.231 10 0 59304 79200.00000 0 -11327962.867 1730935.303 22796061.092 10 0 59304 80100.00000 0 -11038721.186 -1075912.899 22976677.154 10 0 59304 81000.00000 0 -10951967.493 -3891195.433 22711378.157 10 0 59304 81900.00000 0 -11065559.597 -6645832.148 22005263.728 10 0 59304 82800.00000 0 -11365367.830 -9272714.877 20871981.873 10 0 59304 83700.00000 0 -11825914.673 -11709254.530 19333469.974 10 0 59304 84600.00000 0 -12411509.025 -13899745.286 17419535.687 10 0 59304 85500.00000 0 -13077827.853 -15797448.219 15167285.123 10 0 59305 0.00000 0 -13773879.098 -17366308.300 12620408.675 10 0 59305 900.00000 0 -14444263.377 -18582233.441 9828337.246 10 0 59305 1800.00000 0 -15031639.548 -19433883.085 6845285.642 10 0 59305 2700.00000 0 -15479289.412 -19922932.508 3729200.175 10 0 59305 3600.00000 0 -15733673.583 -20063803.630 540631.730 10 0 59305 4500.00000 0 -15746869.344 -19882872.885 -2658443.856 10 0 59305 5400.00000 0 -15478786.880 -19417190.633 -5805834.694 10 0 59305 6300.00000 0 -14899069.100 -18712766.499 -8840346.918 10 0 59305 7200.00000 0 -13988593.681 -17822493.680 -11702979.534 10 0 59305 8100.00000 0 -12740512.790 -16803800.507 -14338076.184 10 0 59305 9000.00000 0 -11160785.398 -15716129.039 -16694410.897 10 0 59305 9900.00000 0 -9268178.764 -14618347.661 -18726186.240 10 0 59305 10800.00000 0 -7093737.923 -13566207.231 -20393924.383 10 0 59305 11700.00000 0 -4679744.465 -12609948.250 -21665233.821 10 0 59305 12600.00000 0 -2078207.367 -11792159.863 -22515437.040 10 0 59305 13500.00000 0 651051.899 -11145980.652 -22928047.373 10 0 59305 14400.00000 0 3442640.902 -10693716.557 -22895086.200 10 0 59305 15300.00000 0 6228071.698 -10445933.564 -22417234.715 10 0 59305 16200.00000 0 8938367.938 -10401062.748 -21503817.680 10 0 59305 17100.00000 0 11506695.933 -10545533.686 -20172619.649 10 0 59305 18000.00000 0 13870910.917 -10854430.044 -18449537.341 10 0 59305 18900.00000 0 15975913.365 -11292639.252 -16368074.848 10 0 59305 19800.00000 0 17775718.134 -11816447.353 -13968691.367 10 0 59305 20700.00000 0 19235150.923 -12375511.448 -11298014.004 10 0 59305 21600.00000 0 20331102.292 -12915126.184 -8407930.848 10 0 59305 22500.00000 0 21053287.786 -13378688.313 -5354581.842 10 0 59305 23400.00000 0 21404483.360 -13710254.948 -2197267.220 10 0 59305 24300.00000 0 21400227.373 -13857087.129 1002705.163 10 0 59305 25200.00000 0 21068002.698 -13772070.904 4183210.994 10 0 59305 26100.00000 0 20445934.336 -13415913.296 7282515.691 10 0 59305 27000.00000 0 19581058.226 -12759020.038 10240471.981 10 0 59305 27900.00000 0 18527234.790 -11782975.356 12999685.540 10 0 59305 28800.00000 0 17342795.546 -10481560.911 15506625.978 10 0 59305 29700.00000 0 16088022.056 -8861270.335 17712661.873 10 0 59305 30600.00000 0 14822563.229 -6941296.874 19575000.130 10 0 59305 31500.00000 0 13602899.321 -4752993.714 21057511.904 10 0 59305 32400.00000 0 12479958.729 -2338828.405 22131429.679 10 0 59305 33300.00000 0 11496987.039 249126.294 22775902.598 10 0 59305 34200.00000 0 10687757.157 2951103.536 22978399.691 10 0 59305 35100.00000 0 10075194.989 5701877.393 22734953.599 10 0 59305 36000.00000 0 9670477.794 8433230.259 22050240.090 10 0 59305 36900.00000 0 9472642.701 11076551.343 20937491.721 10 0 59305 37800.00000 0 9468721.604 13565459.506 19418246.869 10 0 59305 38700.00000 0 9634396.714 15838342.472 17521938.393 10 0 59305 39600.00000 0 9935149.346 17840707.441 15285329.137 10 0 59305 40500.00000 0 10327853.665 19527245.857 12751804.468 10 0 59305 41400.00000 0 10762748.410 20863526.597 9970534.765 10 0 59305 42300.00000 0 11185703.430 21827247.025 6995523.656 10 0 59305 43200.00000 0 11540685.189 22408989.773 3884560.090 10 0 59305 44100.00000 0 11772316.680 22612453.660 698094.517 10 0 59305 45000.00000 0 11828422.912 22454149.244 -2501938.680 10 0 59305 45900.00000 0 11662453.499 21962572.119 -5653329.225 10 0 59305 46800.00000 0 11235678.852 21176889.150 -8694805.346 10 0 59305 47700.00000 0 10519066.008 20145193.485 -11567230.180 10 0 59305 48600.00000 0 9494753.630 18922402.453 -14214756.237 10 0 59305 49500.00000 0 8157062.662 17567887.498 -16585914.974 10 0 59305 50400.00000 0 6512998.875 16142936.551 -18634619.795 10 0 59305 51300.00000 0 4582224.990 14708156.093 -20321062.857 10 0 59305 52200.00000 0 2396502.417 13320922.464 -21612488.318 10 0 59305 53100.00000 0 -1374.930 12032989.632 -22483827.172 10 0 59305 54000.00000 0 -2559111.118 10888353.728 -22918181.748 10 0 59305 54900.00000 0 -5216839.953 9921463.570 -22907150.893 10 0 59305 55800.00000 0 -7909378.175 9155851.710 -22450989.918 10 0 59305 56700.00000 0 -10568707.057 8603242.656 -21558602.565 10 0 59305 57600.00000 0 -13126579.790 8263174.834 -20247365.355 10 0 59305 58500.00000 0 -15517146.810 8123151.275 -18542787.827 10 0 59305 59400.00000 0 -17679490.439 8159311.795 -16478015.246 10 0 59305 60300.00000 0 -19559964.002 8337597.523 -14093183.287 10 0 59305 61200.00000 0 -21114238.478 8615358.004 -11434637.121 10 0 59305 62100.00000 0 -22308972.016 8943332.441 -8554029.971 10 0 59305 63000.00000 0 -23123033.313 9267920.838 -5507318.543 10 0 59305 63900.00000 0 -23548228.382 9533648.640 -2353674.997 10 0 59305 64800.00000 0 -23589501.131 9685720.202 845663.270 10 0 59305 65700.00000 0 -23264600.212 9672552.703 4028583.486 10 0 59305 66600.00000 0 -22603226.928 9448182.961 7133303.528 10 0 59305 67500.00000 0 -21645700.832 8974444.992 10099570.511 10 0 59305 68400.00000 0 -20441199.721 8222825.881 12869828.529 10 0 59305 69300.00000 0 -19045648.523 7175921.145 15390332.830 10 0 59305 70200.00000 0 -17519346.029 5828427.626 17612189.014 10 0 59305 71100.00000 0 -15924429.143 4187631.356 19492297.481 10 0 59305 72000.00000 0 -14322280.869 2273369.001 20994185.246 10 0 59305 72900.00000 0 -12770990.265 117463.350 22088709.618 10 0 59305 73800.00000 0 -11322970.136 -2237344.838 22754620.704 10 0 59305 74700.00000 0 -10022831.552 -4738925.406 22978972.277 10 0 59305 75600.00000 0 -8905603.332 -7327685.592 22757373.440 10 0 59305 76500.00000 0 -7995370.260 -9938816.327 22094076.281 10 0 59305 77400.00000 0 -7304386.412 -12504765.930 21001897.682 10 0 59305 78300.00000 0 -6832700.149 -14957839.636 19501976.390 10 0 59305 79200.00000 0 -6568306.101 -17232817.870 17623369.441 10 0 59305 80100.00000 0 -6487817.496 -19269485.069 15402495.009 10 0 59305 81000.00000 0 -6557630.361 -21014964.260 12882431.730 10 0 59305 81900.00000 0 -6735530.451 -22425760.339 10112087.273 10 0 59305 82800.00000 0 -6972674.991 -23469426.739 7145251.810 10 0 59305 83700.00000 0 -7215865.300 -24125785.772 4039554.381 10 0 59305 84600.00000 0 -7410013.842 -24387651.413 855342.292 10 0 59305 85500.00000 0 -7500700.776 -24261024.083 -2345494.369 10 0 59306 0.00000 0 -7436711.075 -23764749.323 -5500729.807 10 0 59306 900.00000 0 -7172443.486 -22929654.616 -8549017.493 10 0 59306 1800.00000 0 -6670089.493 -21797201.466 -11431087.693 10 0 59306 2700.00000 0 -5901486.948 -20417709.025 -14090904.835 10 0 59306 3600.00000 0 -4849570.942 -18848225.216 -16476760.780 10 0 59306 4500.00000 0 -3509358.063 -17150134.894 -18542282.569 10 0 59306 5400.00000 0 -1888422.042 -15386606.156 -20247334.887 10 0 59306 6300.00000 0 -6839.388 -13619982.245 -21558799.746 10 0 59306 7200.00000 0 2103393.624 -11909228.595 -22451218.401 10 0 59306 8100.00000 0 4399449.261 -10307541.876 -22907283.461 10 0 59306 9000.00000 0 6829217.367 -8860220.806 -22918172.031 10 0 59306 9900.00000 0 9333251.213 -7602887.275 -22483713.840 10 0 59306 10800.00000 0 11847029.846 -6560131.415 -21612391.450 10 0 59306 11700.00000 0 14303443.348 -5744636.321 -20321172.736 10 0 59306 12600.00000 0 16635398.071 -5156818.032 -18635179.011 10 0 59306 13500.00000 0 18778433.895 -4784994.672 -16587195.213 10 0 59306 14400.00000 0 20673244.961 -4606076.476 -14217031.533 10 0 59306 15300.00000 0 22267999.179 -4586746.612 -11570748.779 10 0 59306 16200.00000 0 23520360.183 -4685082.034 -8699762.426 10 0 59306 17100.00000 0 24399127.712 -4852545.104 -5659842.651 10 0 59306 18000.00000 0 24885428.277 -5036261.136 -2510029.930 10 0 59306 18900.00000 0 24973406.817 -5181484.925 688512.610 10 0 59306 19800.00000 0 24670390.955 -5234151.375 3873687.608 10 0 59306 20700.00000 0 23996521.560 -5143401.859 6983669.181 10 0 59306 21600.00000 0 22983865.735 -4863979.006 9958102.385 10 0 59306 22500.00000 0 21675049.997 -4358388.224 12739272.953 10 0 59306 23400.00000 0 20121471.416 -3598734.244 15273224.581 10 0 59306 24300.00000 0 18381162.021 -2568154.646 17510802.254 10 0 59306 25200.00000 0 16516395.997 -1261789.317 19408601.771 10 0 59306 26100.00000 0 14591139.742 312755.689 20929807.456 10 0 59306 27000.00000 0 12668451.076 2135470.395 22044902.447 10 0 59306 27900.00000 0 10807935.683 4174527.827 22732238.384 10 0 59306 28800.00000 0 9063366.381 6387372.386 22978453.921 10 0 59306 29700.00000 0 7480563.723 8722265.691 22778734.336 10 0 59306 30600.00000 0 6095625.560 11120226.957 22136907.316 10 0 59306 31500.00000 0 4933578.662 13517288.451 21065372.927 10 0 59306 32400.00000 0 4007507.952 15846973.473 19584868.746 10 0 59306 33300.00000 0 3318199.078 18042894.790 17724074.074 10 0 59306 34200.00000 0 2854308.770 20041366.076 15519060.193 10 0 59306 35100.00000 0 2593055.307 21783918.091 13012596.494 10 0 59306 36000.00000 0 2501399.698 23219614.830 10253325.199 10 0 59306 36900.00000 0 2537667.446 24307072.840 7294820.108 10 0 59306 37800.00000 0 2653542.073 25016099.035 4194547.306 10 0 59306 38700.00000 0 2796345.699 25328878.065 1012747.842 10 0 59306 39600.00000 0 2911509.610 25240659.061 -2188735.593 10 0 59306 40500.00000 0 2945129.526 24759912.638 -5347664.827 10 0 59306 41400.00000 0 2846496.412 23907951.355 -8402621.161 10 0 59306 42300.00000 0 2570494.748 22718029.535 -11294204.691 10 0 59306 43200.00000 0 2079765.594 21233960.395 -13966194.063 10 0 59306 44100.00000 0 1346541.842 19508308.812 -16366643.506 10 0 59306 45000.00000 0 354077.014 17600235.925 -18448895.345 10 0 59306 45900.00000 0 -902393.837 15573086.356 -20172488.131 10 0 59306 46800.00000 0 -2415202.655 13491819.383 -21503942.785 10 0 59306 47700.00000 0 -4164326.357 11420391.803 -22417411.617 10 0 59306 48600.00000 0 -6117991.940 9419201.893 -22895178.030 10 0 59306 49500.00000 0 -8233784.332 7542700.940 -22927997.614 10 0 59306 50400.00000 0 -10460211.422 5837271.646 -22515274.416 10 0 59306 51300.00000 0 -12738661.675 4339461.181 -21665069.336 10 0 59306 52200.00000 0 -15005673.338 3074641.655 -20393940.727 10 0 59306 53100.00000 0 -17195421.091 2056152.875 -18726620.388 10 0 59306 54000.00000 0 -19242316.951 1284961.888 -16695531.277 10 0 59306 54900.00000 0 -21083617.353 749852.233 -14340156.119 10 0 59306 55800.00000 0 -22661927.846 428133.603 -11706269.143 10 0 59306 56700.00000 0 -23927501.081 286840.783 -8845045.682 10 0 59306 57600.00000 0 -24840232.274 284370.172 -5812066.900 10 0 59306 58500.00000 0 -25371268.841 372483.837 -2666239.052 10 0 59306 59400.00000 0 -25504167.068 498595.544 531351.563 10 0 59306 60300.00000 0 -25235547.662 608241.361 3718625.549 10 0 59306 61200.00000 0 -24575222.991 647629.748 6833715.825 10 0 59306 62100.00000 0 -23545791.074 566162.707 9816167.918 10 0 59306 63000.00000 0 -22181713.651 318820.960 12608111.695 10 0 59306 63900.00000 0 -20527917.265 -131688.057 15155381.695 10 0 59306 64800.00000 0 -18637976.128 -813110.493 17408564.539 10 0 59306 65700.00000 0 -16571952.776 -1742231.905 19323953.466 10 0 59306 66600.00000 0 -14393986.670 -2923928.723 20864391.881 10 0 59306 67500.00000 0 -12169731.026 -4350726.048 21999990.209 10 0 59306 68400.00000 0 -9963744.223 -6002881.292 22708702.741 10 0 59306 69300.00000 0 -7836943.851 -7848991.320 22976753.774 10 0 59306 70200.00000 0 -5844228.575 -9847098.999 22798905.176 10 0 59306 71100.00000 0 -4032365.930 -11946254.400 22178560.315 10 0 59306 72000.00000 0 -2438233.181 -14088466.824 21127702.207 10 0 59306 72900.00000 0 -1087483.627 -16210967.628 19666666.714 10 0 59306 73800.00000 0 6306.838 -18248690.630 17823754.552 10 0 59306 74700.00000 0 841977.927 -20136867.488 15634688.941 10 0 59306 75600.00000 0 1430594.503 -21813630.352 13141928.571 10 0 59306 76500.00000 0 1794736.023 -23222513.342 10393848.447 10 0 59306 77400.00000 0 1967296.324 -24314748.161 7443803.973 10 0 59306 78300.00000 0 1989844.841 -25051257.480 4349096.004 10 0 59306 79200.00000 0 1910619.056 -25404262.025 1169856.876 10 0 59306 80100.00000 0 1782233.619 -25358433.354 -2032120.742 10 0 59306 81000.00000 0 1659203.854 -24911543.337 -5194588.990 10 0 59306 81900.00000 0 1595389.366 -24074582.499 -8256059.977 10 0 59306 82800.00000 0 1641466.932 -22871341.896 -11157006.503 10 0 59306 83700.00000 0 1842540.681 -21337475.837 -13841024.372 10 0 59306 84600.00000 0 2235991.785 -19519084.735 -16255933.100 10 0 59306 85500.00000 0 2849659.542 -17470877.644 -18354793.084 99